Time,TemperatureF,DewpointF,PressureIn,WindDirection,WindDirectionDegrees,WindSpeedMPH,WindSpeedGustMPH,Humidity,HourlyPrecipIn,Conditions,Clouds,dailyrainin,SolarRadiationWatts/m^2,SoftwareType,DateUTC
2013-07-21 00:01:00,59.0,55.0,-100.00,NE,34,4.0,9.0,88,0.00,,,0.31,0.000000,,2013-07-21 07:01:00,
2013-07-21 00:11:00,59.0,55.0,-100.00,NE,34,4.0,9.0,88,0.00,,,0.31,0.000000,,2013-07-21 07:11:00,
2013-07-21 00:22:00,59.0,55.0,-100.00,NE,34,4.0,9.0,88,0.00,,,0.31,0.000000,,2013-07-21 07:22:00,
2013-07-21 00:32:00,59.0,55.0,-100.00,NE,34,4.0,9.0,88,0.00,,,0.31,0.000000,,2013-07-21 07:32:00,
2013-07-21 01:01:00,58.0,54.0,-100.00,NE,55,3.0,6.0,88,0.00,,,0.31,0.000000,,2013-07-21 08:01:00,
2013-07-21 01:11:00,58.0,54.0,-100.00,NE,55,3.0,6.0,88,0.00,,,0.31,0.000000,,2013-07-21 08:11:00,
2013-07-21 01:22:00,58.0,54.0,-100.00,NE,55,3.0,6.0,88,0.00,,,0.31,0.000000,,2013-07-21 08:22:00,
2013-07-21 01:33:00,58.0,54.0,-100.00,NE,55,3.0,6.0,88,0.00,,,0.31,0.000000,,2013-07-21 08:33:00,
2013-07-21 02:02:00,58.0,56.0,-100.00,NE,47,3.0,5.0,92,0.00,,,0.31,0.000000,,2013-07-21 09:02:00,
2013-07-21 02:12:00,58.0,56.0,-100.00,NE,47,3.0,5.0,92,0.00,,,0.31,0.000000,,2013-07-21 09:12:00,
2013-07-21 02:22:00,58.0,56.0,-100.00,NE,47,3.0,5.0,92,0.00,,,0.31,0.000000,,2013-07-21 09:22:00,
2013-07-21 02:32:00,58.0,56.0,-100.00,NE,47,3.0,5.0,92,0.00,,,0.31,0.000000,,2013-07-21 09:32:00,
2013-07-21 03:01:00,57.0,55.0,-100.00,ENE,64,3.0,4.0,93,0.00,,,0.31,0.000000,,2013-07-21 10:01:00,
2013-07-21 03:11:00,57.0,55.0,-100.00,ENE,64,3.0,4.0,93,0.00,,,0.31,0.000000,,2013-07-21 10:11:00,
2013-07-21 03:22:00,57.0,55.0,-100.00,ENE,64,3.0,4.0,93,0.00,,,0.31,0.000000,,2013-07-21 10:22:00,
2013-07-21 03:32:00,57.0,55.0,-100.00,ENE,64,3.0,4.0,93,0.00,,,0.31,0.000000,,2013-07-21 10:32:00,
2013-07-21 04:02:00,57.0,56.0,-100.00,East,89,2.0,4.0,95,0.00,,,0.31,0.000000,,2013-07-21 11:02:00,
2013-07-21 04:11:00,57.0,56.0,-100.00,East,89,2.0,4.0,95,0.00,,,0.31,0.000000,,2013-07-21 11:11:00,
2013-07-21 04:22:00,57.0,56.0,-100.00,East,89,2.0,4.0,95,0.00,,,0.31,0.000000,,2013-07-21 11:22:00,
2013-07-21 04:32:00,57.0,56.0,-100.00,East,89,2.0,4.0,95,0.00,,,0.31,0.000000,,2013-07-21 11:32:00,
2013-07-21 05:01:00,57.0,56.0,-100.00,ENE,74,2.0,4.0,97,0.00,,,-99.99,0.000000,,2013-07-21 12:01:00,
2013-07-21 05:11:00,57.0,56.0,-100.00,ENE,74,2.0,4.0,97,0.00,,,-99.99,0.000000,,2013-07-21 12:11:00,
2013-07-21 05:22:00,57.0,56.0,-100.00,ENE,74,2.0,4.0,97,0.00,,,-99.99,0.000000,,2013-07-21 12:22:00,
2013-07-21 05:32:00,57.0,56.0,-100.00,ENE,74,2.0,4.0,97,0.00,,,-99.99,0.000000,,2013-07-21 12:32:00,
2013-07-21 06:01:00,57.0,56.0,-100.00,East,91,4.0,6.0,98,0.00,,,0.31,0.000000,,2013-07-21 13:01:00,
2013-07-21 06:12:00,57.0,56.0,-100.00,East,91,4.0,6.0,98,0.00,,,0.31,0.000000,,2013-07-21 13:12:00,
2013-07-21 06:22:00,57.0,56.0,-100.00,East,91,4.0,6.0,98,0.00,,,0.31,0.000000,,2013-07-21 13:22:00,
2013-07-21 06:32:00,57.0,56.0,-100.00,East,91,4.0,6.0,98,0.00,,,0.31,0.000000,,2013-07-21 13:32:00,
2013-07-21 07:01:00,58.0,57.0,-100.00,SE,127,1.0,5.0,98,0.00,,,0.31,25.000000,,2013-07-21 14:01:00,
2013-07-21 07:12:00,58.0,57.0,-100.00,SE,127,1.0,5.0,98,0.00,,,0.31,25.000000,,2013-07-21 14:12:00,
2013-07-21 07:22:00,58.0,57.0,-100.00,SE,127,1.0,5.0,98,0.00,,,0.31,25.000000,,2013-07-21 14:22:00,
2013-07-21 07:32:00,58.0,57.0,-100.00,SE,127,1.0,5.0,98,0.00,,,0.31,25.000000,,2013-07-21 14:32:00,
2013-07-21 08:02:00,59.0,58.0,-100.00,SSE,157,3.0,6.0,98,0.00,,,0.31,94.000000,,2013-07-21 15:02:00,
2013-07-21 08:11:00,59.0,58.0,-100.00,SSE,157,3.0,6.0,98,0.00,,,0.31,94.000000,,2013-07-21 15:11:00,
2013-07-21 08:22:00,59.0,58.0,-100.00,SSE,157,3.0,6.0,98,0.00,,,0.31,94.000000,,2013-07-21 15:22:00,
2013-07-21 08:32:00,59.0,58.0,-100.00,SSE,157,3.0,6.0,98,0.00,,,0.31,94.000000,,2013-07-21 15:32:00,
2013-07-21 09:01:00,63.0,59.0,-100.00,SSE,166,2.0,8.0,88,0.00,,,0.31,382.000000,,2013-07-21 16:01:00,
2013-07-21 09:11:00,63.0,59.0,-100.00,SSE,166,2.0,8.0,88,0.00,,,0.31,382.000000,,2013-07-21 16:11:00,
2013-07-21 09:22:00,63.0,59.0,-100.00,SSE,166,2.0,8.0,88,0.00,,,0.31,382.000000,,2013-07-21 16:22:00,
2013-07-21 09:32:00,63.0,59.0,-100.00,SSE,166,2.0,8.0,88,0.00,,,0.31,382.000000,,2013-07-21 16:32:00,
2013-07-21 10:02:00,64.0,58.0,-100.00,SSE,166,3.0,6.0,82,0.00,,,0.31,454.000000,,2013-07-21 17:02:00,
2013-07-21 10:11:00,64.0,58.0,-100.00,SSE,166,3.0,6.0,82,0.00,,,0.31,454.000000,,2013-07-21 17:11:00,
2013-07-21 10:22:00,64.0,58.0,-100.00,SSE,166,3.0,6.0,82,0.00,,,0.31,454.000000,,2013-07-21 17:22:00,
2013-07-21 10:33:00,64.0,58.0,-100.00,SSE,166,3.0,6.0,82,0.00,,,0.31,454.000000,,2013-07-21 17:33:00,
2013-07-21 11:01:00,70.0,61.0,-100.00,South,170,4.0,8.0,73,0.00,,,0.31,919.000000,,2013-07-21 18:01:00,
2013-07-21 11:11:00,70.0,61.0,-100.00,South,170,4.0,8.0,73,0.00,,,0.31,919.000000,,2013-07-21 18:11:00,
2013-07-21 11:21:00,70.0,61.0,-100.00,South,170,4.0,8.0,73,0.00,,,0.31,919.000000,,2013-07-21 18:21:00,
2013-07-21 11:32:00,70.0,61.0,-100.00,South,170,4.0,8.0,73,0.00,,,0.31,919.000000,,2013-07-21 18:32:00,
2013-07-21 12:01:00,72.0,60.0,-100.00,SSW,192,3.0,9.0,67,0.00,,,0.31,889.000000,,2013-07-21 19:01:00,
2013-07-21 12:11:00,72.0,60.0,-100.00,SSW,192,3.0,9.0,67,0.00,,,0.31,889.000000,,2013-07-21 19:11:00,
2013-07-21 12:22:00,72.0,60.0,-100.00,SSW,192,3.0,9.0,67,0.00,,,0.31,889.000000,,2013-07-21 19:22:00,
2013-07-21 12:32:00,72.0,60.0,-100.00,SSW,192,3.0,9.0,67,0.00,,,0.31,889.000000,,2013-07-21 19:32:00,
2013-07-21 13:01:00,72.0,62.0,-100.00,WSW,244,4.0,8.0,72,0.00,,,0.31,610.000000,,2013-07-21 20:01:00,
2013-07-21 13:11:00,72.0,62.0,-100.00,WSW,244,4.0,8.0,72,0.00,,,0.31,610.000000,,2013-07-21 20:11:00,
2013-07-21 13:22:00,72.0,62.0,-100.00,WSW,244,4.0,8.0,72,0.00,,,0.31,610.000000,,2013-07-21 20:22:00,
2013-07-21 15:01:00,74.0,58.0,-100.00,SW,222,4.0,9.0,57,-99.99,,,0.02,641.000000,,2013-07-21 22:01:00,
2013-07-21 15:11:00,74.0,58.0,-100.00,SW,222,4.0,9.0,57,-99.99,,,0.02,641.000000,,2013-07-21 22:11:00,
2013-07-21 15:22:00,74.0,58.0,-100.00,SW,222,4.0,9.0,57,-99.99,,,0.02,641.000000,,2013-07-21 22:22:00,
2013-07-21 15:32:00,74.0,58.0,-100.00,SW,222,4.0,9.0,57,-99.99,,,0.02,641.000000,,2013-07-21 22:32:00,
2013-07-21 16:01:00,70.0,60.0,-100.00,SW,227,3.0,10.0,70,0.00,,,0.02,676.000000,,2013-07-21 23:01:00,
2013-07-21 16:11:00,70.0,60.0,-100.00,SW,227,3.0,10.0,70,0.00,,,0.02,676.000000,,2013-07-21 23:11:00,
2013-07-21 16:22:00,70.0,60.0,-100.00,SW,227,3.0,10.0,70,0.00,,,0.02,676.000000,,2013-07-21 23:22:00,
2013-07-21 16:32:00,70.0,60.0,-100.00,SW,227,3.0,10.0,70,0.00,,,0.02,676.000000,,2013-07-21 23:32:00,
2013-07-21 17:01:00,71.0,60.0,-100.00,SSW,197,5.0,11.0,68,0.00,,,0.02,577.000000,,2013-07-22 00:01:00,
2013-07-21 17:11:00,71.0,60.0,-100.00,SSW,197,5.0,11.0,68,0.00,,,0.02,577.000000,,2013-07-22 00:11:00,
2013-07-21 17:22:00,71.0,60.0,-100.00,SSW,197,5.0,11.0,68,0.00,,,0.02,577.000000,,2013-07-22 00:22:00,
2013-07-21 17:32:00,71.0,60.0,-100.00,SSW,197,5.0,11.0,68,0.00,,,0.02,577.000000,,2013-07-22 00:32:00,
2013-07-21 19:02:00,66.0,57.0,-100.00,SW,236,3.0,11.0,74,-99.99,,,0.00,190.000000,,2013-07-22 02:02:00,
2013-07-21 19:11:00,66.0,57.0,-100.00,SW,236,3.0,11.0,74,-99.99,,,0.00,190.000000,,2013-07-22 02:11:00,
2013-07-21 19:22:00,66.0,57.0,-100.00,SW,236,3.0,11.0,74,-99.99,,,0.00,190.000000,,2013-07-22 02:22:00,
2013-07-21 19:32:00,66.0,57.0,-100.00,SW,236,3.0,11.0,74,-99.99,,,0.00,190.000000,,2013-07-22 02:32:00,
2013-07-21 20:01:00,61.0,57.0,-100.00,SW,222,2.0,7.0,86,0.00,,,0.00,40.000000,,2013-07-22 03:01:00,
2013-07-21 20:11:00,61.0,57.0,-100.00,SW,222,2.0,7.0,86,0.00,,,0.00,40.000000,,2013-07-22 03:11:00,
2013-07-21 20:22:00,61.0,57.0,-100.00,SW,222,2.0,7.0,86,0.00,,,0.00,40.000000,,2013-07-22 03:22:00,
2013-07-21 20:33:00,61.0,57.0,-100.00,SW,222,2.0,7.0,86,0.00,,,0.00,40.000000,,2013-07-22 03:33:00,
2013-07-21 21:01:00,59.0,55.0,-100.00,SW,229,4.0,6.0,87,0.00,,,0.00,0.000000,,2013-07-22 04:01:00,
2013-07-21 21:12:00,59.0,55.0,-100.00,SW,229,4.0,6.0,87,0.00,,,0.00,0.000000,,2013-07-22 04:12:00,
2013-07-21 21:22:00,59.0,55.0,-100.00,SW,229,4.0,6.0,87,0.00,,,0.00,0.000000,,2013-07-22 04:22:00,
2013-07-21 21:33:00,59.0,55.0,-100.00,SW,229,4.0,6.0,87,0.00,,,0.00,0.000000,,2013-07-22 04:33:00,
2013-07-21 22:02:00,58.0,56.0,-100.00,WSW,249,4.0,6.0,94,0.00,,,0.00,0.000000,,2013-07-22 05:02:00,
2013-07-21 22:11:00,58.0,56.0,-100.00,WSW,249,4.0,6.0,94,0.00,,,0.00,0.000000,,2013-07-22 05:11:00,
2013-07-21 22:22:00,58.0,56.0,-100.00,WSW,249,4.0,6.0,94,0.00,,,0.00,0.000000,,2013-07-22 05:22:00,
2013-07-21 22:32:00,58.0,56.0,-100.00,WSW,249,4.0,6.0,94,0.00,,,0.00,0.000000,,2013-07-22 05:32:00,
2013-07-21 23:01:00,57.0,55.0,-100.00,WSW,256,4.0,8.0,93,0.00,,,0.00,0.000000,,2013-07-22 06:01:00,
2013-07-21 23:11:00,57.0,55.0,-100.00,WSW,256,4.0,8.0,93,0.00,,,0.00,0.000000,,2013-07-22 06:11:00,
2013-07-21 23:22:00,57.0,55.0,-100.00,WSW,256,4.0,8.0,93,0.00,,,0.00,0.000000,,2013-07-22 06:22:00,
2013-07-21 23:32:00,57.0,55.0,-100.00,WSW,256,4.0,8.0,93,0.00,,,0.00,0.000000,,2013-07-22 06:32:00,